Regional Weather Roundup
Issued by NWS

Home | Current Version | Previous Version | Text Only | Print | Product List | Glossary Off
Versions: 1 2 3 4 5 6 7 8 9 10 11 12 13 14 15 16 17 18 19 20 21 22 23 24 25 26 27 28 29 30 31 32 33 34 35 36 37 38 39 40 41 42 43 44 45 46 47 48 49 50

000
ASUS45 KBOU 260107
RWRCO

WEATHER ROUNDUP FOR COLORADO
NATIONAL WEATHER SERVICE DENVER/BOULDER CO
700 PM MDT MON MAY 25 2015

NOTE: "FAIR" INDICATES FEW OR NO CLOUDS BELOW 12000 FEET WITH NO
SIGNIFICANT WEATHER AND/OR OBSTRUCTIONS TO VISIBILITY.

COZ001>005-013-030-031-260200-
...NORTHWEST COLORADO...

CITY           SKY/WX    TMP DP  RH WIND       PRES   REMARKS
CRAIG          HVY RAIN  51  42  71 W12G20    30.03R
HAYDEN         PTSUNNY   54  41  62 SW5       30.01S
MEEKER         CLOUDY    59  39  47 NW8       30.00R
MOUNT WERNER   NOT AVBL
STEAMBOAT SPGS PTSUNNY   49  42  76 NE7       30.03R
WALDEN         CLOUDY    48  37  66 N8        30.06S
$$

COZ006>008-011-260200-
...WEST CENTRAL VALLEYS...

CITY           SKY/WX    TMP DP  RH WIND       PRES   REMARKS
GRAND JUNCTION MOSUNNY   66  40  38 NW10      29.94S
MONTROSE       LGT RAIN  58  43  57 SW16      30.03R
EAGLE          MOSUNNY   54  43  66 NE6       30.05R
RIFLE          MOSUNNY   60  43  53 CALM      29.97R
DELTA          MOSUNNY   66  43  43 MISG      29.98R
NUCLA          PTSUNNY   57  43  58 E12       30.06R
$$

COZ017>023-064>068-260200-
...SOUTHWEST COLORADO...

CITY           SKY/WX    TMP DP  RH WIND       PRES   REMARKS
DURANGO        CLOUDY    56  38  50 NW6       30.04S
CORTEZ         SUNNY     58  42  55 E8        30.04R
PAGOSA SPRINGS CLOUDY    54  39  58 CALM      30.09R
TELLURIDE      CLOUDY    44  38  78 W3        30.17R
WOLF CREEK PAS NOT AVBL
$$

COZ009-010-012-014-032>034-037-058>063-260200-
...CENTRAL COLORADO...

CITY           SKY/WX    TMP DP  RH WIND       PRES   REMARKS
ASPEN          CLOUDY    49  37  63 S7        30.07R
BUENA VISTA    CLOUDY    55  33  42 W13G20    30.01R
COPPER MTN     SNOW      34  30  86 W18       30.21S VSB<1/4 WCI  23
BERTHOUD PASS  PTSUNNY   28  21  74 N9        30.23R THUNDER WCI  20
COTTONWOOD PAS CLOUDY    46  30  53 W20G29    30.10R THUNDER
GUNNISON       PTSUNNY   54  34  47 NW12      30.07R
KREMMLING      CLOUDY    52  36  54 SW7       30.06R
LEADVILLE      CLOUDY    44  30  57 N12       30.12S
MONARCH PASS     N/A     32  32 100 W24       30.30S WCI  19
SALIDA         CLOUDY    59  34  39 SW13G18   30.07R
SUNLIGHT       PTSUNNY   41  36  81 CALM      30.22R THUNDER
WILKERSON PASS CLOUDY    37  30  75 NE3       30.19R
$$

COZ069>075-260200-
...SAN LUIS VALLEY/SANGRE DE CRISTO MOUNTAINS...

CITY           SKY/WX    TMP DP  RH WIND       PRES   REMARKS
ALAMOSA        PTSUNNY   54  37  52 SW12      30.02R
LA VETA PASS   CLOUDY   N/A N/A N/A MISG      30.12S
SAGUACHE       MOSUNNY   55  34  44 SE8       30.03R
$$

COZ035-036-038>040-260200-
...NORTHERN COLORADO FRONT RANGE...

CITY           SKY/WX    TMP DP  RH WIND       PRES   REMARKS
DENVER INTL AP PTSUNNY   56  45  66 NE9       29.95R
DMNS CITY PARK   N/A     52  49  89 N5G16     29.97R
AURORA         NOT AVBL
FRONT RANGE AP PTSUNNY   57  46  67 NE12      29.95
ERIE MUNI ARPT CLOUDY    52  49  89 NW3       29.96S
BOULDER MUN AP RAIN      52  50  93 CALM      29.96F
CENTENNIAL     CLOUDY    56  46  69 NE10      29.94R THUNDER
BROOMFIELD     NOT AVBL
FORT COLLINS   CLOUDY    54  46  76 S7        29.97R
LONGMONT       CLOUDY    55  49  83 N8        29.96F
$$

COZ041-046-047-076>085-087-088-260200-
...PIKES PEAK/PALMER DIVIDE AND SOUTHERN FOOTHILLS...

CITY           SKY/WX    TMP DP  RH WIND       PRES   REMARKS
COLO. SPRINGS  PTSUNNY   52  46  80 E9        29.99R
A. F. ACADEMY  PTSUNNY   52  45  76 S10       29.99R
ELLICOTT       NOT AVBL
FALCON         PTSUNNY   50  42  73 S8        30.02R
FORT CARSON    NOT AVBL
LIMON          PTSUNNY   54  45  71 S6        29.95S
MONUMENT HILL  NOT AVBL
TRINIDAD       PTSUNNY   57  44  62 SE6       29.95R
$$

COZ042>045-048>051-090-091-260200-
...NORTHEAST COLORADO...

CITY           SKY/WX    TMP DP  RH WIND       PRES   REMARKS
GREELEY ARPT   CLOUDY    57  48  72 W6        29.94R
AKRON          PTSUNNY   56  47  71 NW9       29.92R
BURLINGTON     MOSUNNY   65  47  52 N10       29.89R
WRAY           MOSUNNY   60  50  68 NW9       29.89R
STERLING       PTSUNNY   59  50  72 N6        29.88S
HOLYOKE        NOT AVBL
FORT MORGAN    PTSUNNY   60  44  54 N3        29.92R
$$

COZ086-089-092>099-260200-
...SOUTHEAST COLORADO...

CITY           SKY/WX    TMP DP  RH WIND       PRES   REMARKS
PUEBLO         CLOUDY    62  46  55 S9        29.91R
LA JUNTA       CLOUDY    66  51  58 N5        29.87F
LAMAR          PTSUNNY   66  51  58 NE5       29.83S
SPRINGFIELD      N/A     65  45  48 W13       29.87R
$$



USA.gov is the U.S. government's official web portal to all federal, state and local government web resources and services.